Wind_Speed
3 4 5 7 9 10 13 16 17 18 20 21 22 23 24 24 24 26 27 25 26 26 26 26 27 27 27 27 27 27 27 28 28 28 29 29 28 28
3 3 4 5 6 8 11 14 16 17 18 20 21 22 22 23 23 24 26 26 26 26 26 27 27 28 28 29 29 29 30 30 30 30 31 31 31 31
2 2 2 3 5 6 9 12 14 15 16 18 20 20 21 22 22 23 24 26 27 27 28 28 29 29 30 30 31 31 32 33 33 33 34 34 34 33
1 1 1 2 3 5 7 10 13 14 15 17 19 20 21 22 22 22 23 25 27 27 28 28 30 31 31 32 32 33 34 34 35 35 36 36 36 36
1 0 1 2 3 5 6 8 10 12 14 16 17 18 20 21 22 22 23 24 26 26 27 27 29 30 31 32 33 33 34 34 35 36 36 36 37 38
2 1 2 2 3 4 5 7 9 11 12 14 15 16 18 19 20 21 22 23 25 26 26 27 28 29 31 32 33 33 34 35 36 36 37 37 38 39
2 2 3 3 3 4 5 6 8 9 11 13 14 14 16 18 19 20 21 22 23 24 26 27 28 29 30 31 33 34 35 36 37 38 38 38 39 40
3 3 3 4 4 5 5 6 7 9 11 12 14 15 16 17 19 20 21 22 23 25 26 27 28 30 31 31 33 34 36 37 38 39 39 40 41 42
4 4 4 4 5 5 6 7 8 9 11 12 13 14 16 17 18 20 21 22 23 24 26 27 28 30 31 32 33 34 35 36 37 38 39 40 41 41
5 5 5 6 6 6 7 8 9 10 11 12 14 15 16 17 19 20 21 22 23 24 25 26 28 29 30 31 32 33 34 35 36 37 38 39 40 41
6 7 7 7 8 8 8 9 10 11 12 13 14 15 17 18 18 20 21 22 23 24 25 26 28 29 30 31 31 33 34 35 36 37 38 39 40 41
8 9 9 9 9 10 10 11 11 12 13 14 15 16 17 18 19 20 21 23 24 25 26 27 28 29 30 32 32 33 34 35 36 37 38 38 39 40
11 11 11 11 11 12 12 13 13 14 15 16 16 17 18 19 20 20 22 23 24 25 26 27 28 29 30 31 33 34 35 35 36 37 37 38 39 40
13 13 13 13 13 13 14 14 14 15 16 16 17 18 19 20 20 21 22 23 24 26 27 27 28 30 30 31 32 34 35 36 37 37 37 38 39 39
16 15 15 15 15 15 15 15 16 16 17 18 18 19 20 21 22 23 24 25 26 27 27 28 29 30 31 32 32 34 35 37 37 38 38 39 40 41
19 18 18 18 17 17 17 17 18 18 19 20 20 21 21 22 23 24 25 26 27 28 29 29 30 31 32 33 34 35 36 36 38 39 39 40 41 42
22 21 21 20 20 20 19 19 20 20 21 22 22 23 24 25 26 26 27 28 29 30 31 32 32 33 33 34 35 36 37 38 38 39 40 41 42 43
24 24 23 23 22 22 22 22 22 23 23 24 24 25 26 27 27 28 29 30 31 32 33 34 35 35 36 37 38 38 39 40 40 41 41 42 43 44
26 26 25 25 25 25 25 25 25 25 25 26 26 27 28 28 29 30 31 32 33 34 35 36 37 38 38 39 40 41 42 42 42 43 44 44 44 45
28 28 27 27 27 27 27 27 27 27 28 28 28 29 30 30 31 32 33 34 35 36 37 38 39 40 40 41 41 43 44 44 44 45 46 47 47 47
30 29 29 29 29 29 29 29 29 29 29 30 30 31 31 32 33 34 35 36 37 38 39 40 41 42 43 43 43 44 46 47 48 48 49 50 50 50
31 31 30 30 30 30 30 30 30 31 31 31 32 33 33 34 35 36 37 38 39 40 41 43 44 44 45 45 45 46 47 49 51 52 52 53 53 53
32 31 31 31 31 31 31 31 31 32 32 33 33 34 35 36 37 38 39 40 41 42 43 44 45 46 47 48 49 49 49 50 51 52 53 55 56 56
Wind_Direction
147 171 185 192 199 206 209 210 212 214 217 219 222 224 226 228 231 231 230 233 234 235 237 237 239 241 241 242 243 244 245 246 247 247 248 249 249 249
124 151 172 189 204 210 209 211 214 216 219 220 222 225 228 231 232 231 232 235 236 237 238 240 241 242 243 245 246 248 248 248 249 250 250 250 251 251
122 148 166 196 210 211 209 210 213 217 221 222 222 225 229 230 231 232 234 237 239 241 243 244 244 245 247 249 249 250 251 251 251 252 252 252 252 252
82 151 191 212 222 218 216 213 214 217 221 224 227 229 231 233 234 236 237 240 242 244 246 248 248 249 250 251 251 252 253 253 254 254 254 254 254 254
7 326 243 234 228 224 224 220 218 220 224 227 229 232 234 236 237 239 241 243 245 247 249 251 252 252 252 253 254 255 254 254 255 255 254 255 254 254
323 291 271 260 247 233 230 228 226 228 231 232 233 234 234 237 240 242 245 247 248 250 252 254 255 255 255 254 255 256 257 257 257 257 256 257 257 257
307 284 273 272 270 258 248 242 238 239 238 238 240 240 241 243 245 247 250 251 252 254 256 256 257 257 258 257 257 257 258 258 258 258 258 258 258 259
314 296 282 275 268 259 257 253 250 248 246 246 249 251 251 251 251 253 254 255 256 257 260 260 260 261 260 259 259 259 260 261 260 259 259 259 259 259
308 299 291 285 278 269 266 264 261 258 256 255 255 257 257 257 258 258 259 260 260 261 262 264 263 262 261 261 261 261 261 261 261 261 260 259 259 260
302 303 299 292 287 281 276 273 271 268 264 263 262 262 262 262 263 264 265 265 265 264 264 266 266 266 264 264 263 263 263 263 262 261 261 261 261 261
295 297 299 297 293 289 285 281 279 276 272 269 268 267 267 267 267 268 268 267 268 268 267 268 269 269 269 269 268 266 265 264 264 263 263 263 262 262
290 292 293 293 292 290 288 286 284 282 279 276 275 274 273 272 272 272 272 271 271 271 271 271 271 271 271 272 271 270 268 266 265 264 264 264 264 264
285 287 288 289 290 289 288 287 286 285 283 282 280 278 278 277 276 276 276 276 275 275 275 274 274 273 272 272 272 272 271 269 268 266 266 266 265 265
282 285 287 288 289 289 289 289 288 287 286 285 284 282 281 280 279 278 277 277 278 278 279 279 277 276 275 274 273 273 272 271 270 269 269 269 269 267
278 281 284 286 287 289 289 290 289 289 288 287 287 286 285 284 283 282 281 281 281 281 281 281 280 279 277 276 274 274 273 273 272 271 270 270 270 269
276 278 280 282 284 286 288 289 290 290 290 290 289 288 287 287 286 286 286 285 284 284 283 283 282 281 279 278 276 275 274 274 273 272 272 271 271 270
274 276 278 280 281 283 285 287 288 290 290 291 290 289 289 288 288 288 287 287 286 286 286 285 284 283 282 280 278 277 276 275 274 273 272 272 272 271
271 274 276 278 279 281 283 284 286 288 290 291 291 291 290 290 290 290 289 288 288 287 287 287 287 287 286 284 283 281 279 277 276 276 275 273 272 272
270 272 275 276 278 279 281 283 285 287 289 291 291 291 291 291 291 291 291 290 289 288 288 287 287 287 287 286 285 284 282 280 279 277 277 275 274 273
269 271 273 275 277 278 280 282 284 285 287 289 290 291 291 292 292 292 292 292 291 290 289 289 288 287 287 286 286 285 284 283 281 280 278 278 277 276
267 269 272 274 276 278 280 281 283 285 286 288 290 291 292 292 292 293 293 293 292 292 291 290 290 289 289 288 286 286 285 284 283 282 281 280 278 277
265 268 271 273 275 278 279 281 283 284 286 288 290 292 292 293 293 294 294 293 293 293 292 292 291 291 290 289 288 287 286 285 285 284 283 282 280 278
264 266 269 272 275 278 280 283 284 285 287 289 291 292 293 294 295 295 294 294 294 294 294 293 293 292 291 291 290 289 288 286 285 286 286 285 284 282
Height
5779 5780 5781 5783 5784 5786 5788 5791 5794 5796 5799 5802 5804 5807 5810 5813 5816 5819 5822 5825 5828 5830 5833 5835 5837 5839 5841 5843 5845 5846 5848 5850 5851 5853 5854 5856 5857 5859
5780 5780 5781 5782 5783 5785 5786 5788 5791 5793 5796 5798 5801 5803 5806 5809 5811 5814 5817 5819 5822 5825 5827 5829 5831 5833 5835 5837 5839 5840 5842 5843 5845 5846 5848 5849 5850 5852
5780 5780 5781 5781 5782 5783 5784 5786 5788 5790 5792 5795 5797 5799 5802 5804 5807 5809 5812 5814 5816 5819 5821 5823 5825 5827 5828 5830 5832 5833 5835 5836 5837 5839 5840 5842 5843 5844
5780 5780 5780 5780 5781 5781 5782 5783 5785 5787 5789 5791 5793 5795 5797 5800 5802 5804 5806 5808 5810 5812 5814 5816 5818 5819 5821 5822 5824 5825 5827 5828 5829 5830 5832 5833 5835 5836
5780 5780 5780 5780 5780 5780 5781 5781 5783 5784 5786 5787 5789 5791 5793 5795 5797 5799 5801 5803 5804 5806 5807 5809 5810 5811 5813 5814 5815 5817 5818 5819 5821 5822 5823 5824 5825 5826
5780 5779 5779 5779 5779 5779 5779 5780 5781 5782 5783 5784 5785 5787 5788 5790 5792 5794 5795 5797 5798 5799 5800 5801 5802 5803 5804 5806 5807 5808 5809 5810 5811 5812 5813 5814 5815 5816
5779 5779 5779 5778 5778 5778 5778 5778 5779 5779 5780 5781 5782 5783 5785 5786 5787 5788 5790 5791 5792 5793 5793 5794 5795 5795 5796 5797 5798 5798 5799 5800 5801 5802 5803 5803 5804 5805
5778 5778 5777 5777 5777 5776 5776 5776 5776 5777 5777 5778 5779 5780 5780 5781 5782 5783 5784 5785 5785 5786 5786 5787 5787 5787 5788 5788 5788 5789 5790 5790 5790 5791 5792 5793 5793 5794
5777 5776 5776 5775 5775 5775 5774 5774 5774 5774 5775 5775 5775 5776 5776 5777 5777 5778 5778 5778 5778 5778 5778 5779 5779 5779 5779 5779 5779 5779 5779 5779 5779 5780 5780 5781 5782 5782
5775 5775 5774 5773 5773 5772 5772 5772 5771 5771 5771 5771 5771 5772 5772 5772 5772 5772 5771 5771 5771 5771 5771 5771 5771 5770 5770 5769 5769 5769 5769 5769 5769 5769 5769 5769 5770 5770
5773 5772 5772 5771 5770 5770 5769 5769 5768 5768 5768 5767 5767 5767 5767 5766 5766 5766 5765 5765 5764 5764 5764 5763 5763 5762 5761 5761 5760 5759 5759 5759 5759 5758 5758 5758 5758 5759
5770 5770 5769 5768 5767 5766 5766 5765 5764 5764 5763 5763 5762 5762 5761 5761 5760 5760 5759 5758 5757 5757 5756 5756 5755 5754 5753 5752 5751 5750 5749 5748 5748 5748 5747 5747 5747 5747
5767 5766 5765 5764 5764 5763 5762 5761 5760 5759 5759 5758 5757 5756 5756 5755 5754 5753 5752 5751 5750 5749 5749 5748 5747 5745 5745 5743 5741 5740 5739 5738 5738 5737 5736 5736 5736 5736
5762 5761 5761 5760 5759 5758 5757 5756 5755 5754 5753 5753 5751 5750 5750 5749 5748 5747 5746 5744 5743 5742 5741 5739 5738 5737 5735 5734 5733 5730 5729 5728 5727 5727 5726 5725 5724 5724
5757 5756 5755 5755 5754 5753 5752 5751 5750 5749 5748 5747 5746 5744 5743 5742 5741 5739 5738 5737 5735 5734 5732 5731 5730 5728 5727 5725 5724 5721 5719 5718 5716 5716 5715 5714 5713 5712
5751 5750 5749 5749 5748 5747 5746 5745 5744 5743 5742 5740 5739 5738 5736 5735 5733 5732 5730 5728 5727 5725 5724 5722 5720 5719 5717 5715 5713 5711 5709 5708 5706 5704 5704 5702 5701 5700
5743 5743 5743 5742 5741 5741 5740 5739 5738 5736 5735 5733 5732 5731 5729 5727 5726 5724 5722 5720 5718 5716 5714 5712 5710 5708 5706 5704 5702 5700 5698 5697 5695 5693 5692 5691 5689 5687
5736 5735 5735 5735 5734 5733 5733 5732 5730 5729 5728 5726 5724 5723 5721 5719 5717 5715 5713 5711 5709 5706 5704 5701 5699 5697 5695 5693 5691 5689 5686 5684 5683 5681 5679 5679 5677 5674
5727 5727 5727 5726 5726 5725 5725 5724 5722 5721 5719 5718 5716 5714 5712 5710 5708 5706 5704 5701 5699 5696 5694 5691 5689 5686 5684 5681 5678 5675 5673 5671 5669 5667 5665 5664 5663 5661
5718 5718 5718 5718 5717 5717 5716 5715 5714 5712 5711 5709 5707 5705 5703 5701 5698 5696 5693 5691 5688 5685 5683 5680 5677 5674 5672 5669 5666 5662 5658 5656 5654 5652 5650 5648 5647 5646
5708 5708 5708 5708 5708 5707 5706 5705 5704 5703 5701 5700 5698 5695 5693 5691 5688 5686 5683 5680 5677 5674 5671 5667 5664 5661 5658 5656 5653 5650 5645 5641 5638 5636 5634 5632 5630 5629
5697 5698 5698 5698 5698 5697 5696 5696 5694 5693 5691 5690 5687 5685 5683 5680 5678 5675 5672 5668 5665 5662 5658 5655 5651 5647 5644 5641 5638 5635 5632 5627 5622 5619 5616 5613 5610 5610
5686 5687 5687 5687 5687 5687 5686 5685 5684 5683 5681 5679 5677 5675 5672 5669 5666 5663 5660 5656 5652 5649 5645 5641 5637 5633 5629 5626 5622 5619 5616 5612 5607 5604 5599 5594 5590 5588